Regional Weather Roundup
Issued by NWS Burlington, VT

Current Version | Previous Version | Text Only | Print | Product List | Glossary Off
Versions: 1 2 3 4 5 6 7 8 9 10 11 12 13 14 15 16 17 18 19 20 21 22 23 24 25 26 27 28 29 30 31 32 33 34 35 36 37 38 39 40 41 42 43 44 45 46 47 48 49 50

000
ASUS41 KBTV 281330
RWRBTV
VERMONT REGIONAL WEATHER ROUNDUP
NATIONAL WEATHER SERVICE BURLINGTON VT
900 AM EDT SAT MAR 28 2015

NOTE: "FAIR" INDICATES FEW OR NO CLOUDS BELOW 12,000 FEET WITH NO
SIGNIFICANT WEATHER AND/OR OBSTRUCTIONS TO VISIBILITY.

* THESE REPORTS ARE NOT UNDER NWS QUALITY CONTROL AND/OR DO NOT
  REPORT WEATHER SUCH AS PRECIPITATION AND FOG.

VTZ001>019-281400-
_____VERMONT_____


CITY           SKY/WX    TMP DP  RH WIND       PRES   REMARKS
BURLINGTON     CLOUDY    21   7  54 N15       29.98R WCI   8
MONTPELIER     CLOUDY    21  12  68 N10       29.89R WCI  10
MORRISVILLE    CLOUDY    21  10  62 NW12      29.93R WCI   9
ST. JOHNSBURY*   N/A     24  11  57 MISG      29.87R
LYNDONVILLE*     N/A     21  10  61 NW8       29.87R
MIDDLEBURY*    CLOUDY    22  13  67 N14G20    29.92S WCI  10
RUTLAND*       CLOUDY    21  12  68 NW9       29.87R
SPRINGFIELD    CLOUDY    30  19  63 N8G18     29.83R
HIGHGATE*      CLOUDY    19   8  61 NW8       30.02R
NEWPORT*       CLOUDY    17   7  65 NW12      29.93R WCI   4
BENNINGTON     LGT SNOW  24  18  77 NW10      29.83R WCI  14
SUTTON*          N/A     19 N/A N/A MISG        N/A
GALLUP MILLS*    N/A     25 N/A N/A MISG        N/A
MT. MANSFIELD*   N/A     16 N/A N/A CALM        N/A

_____LAKE CHAMPLAIN_____


CITY           SKY/WX    TMP DP  RH WIND       PRES   REMARKS
BURTON ISLAND*   N/A     21  10  63 NW1         N/A
COLCHESTER RF*   N/A     21  12  68 N21         N/A  WCI   6
DIAMOND ISL*     N/A     21  10  63 N22         N/A  WCI   5

$$

NYZ007-026>031-035-052-083-281400-
_____NORTHERN NEW YORK_____


CITY           SKY/WX    TMP DP  RH WIND       PRES   REMARKS
PLATTSBURGH    CLOUDY    19  10  68 N17       30.01R WCI   4
SARANAC LAKE   LGT SNOW  15  10  80 N6        29.86R VSB 1
MASSENA        CLOUDY    15   3  59 NW7       30.08R
OGDENSBURG*    PTSUNNY   16   5  62 N12       30.08R WCI   3
POTSDAM*       FLURRIES  14   9  79 N8        30.05R
STARK FALLS*     N/A     12 N/A N/A N5          N/A
WATERTOWN      PTSUNNY   15   2  56 N12       30.08R WCI   2
FT DRUM        CLOUDY    11   1  63 N10       30.03R WCI  -3
ALBANY         FLURRIES  27  20  75 NW12      29.90R WCI  17
GLENS FALLS    CLOUDY    26  14  60 NE16G23   29.91R WCI  14

$$
NHZ002-005-011-281400-
_____NEW HAMPSHIRE_____


CITY           SKY/WX    TMP DP  RH WIND       PRES   REMARKS
LEBANON        CLOUDY    31  15  52 NE13G18   29.83R
KEENE          CLOUDY    28  25  86 N10       29.80R WCI  19
MT WASHINGTON  LGT SNOW  12  10  92 E7          N/A
PLYMOUTH       LGT SNOW  28  26  91 W7        29.82R
WHITEFIELD     CLOUDY    24  13  62 N9        29.83S

$$

_____REGIONAL QUEBEC LOCATIONS_____


CITY           SKY/WX    TMP DP  RH WIND       PRES   REMARKS
MONTREAL       MOSUNNY   16   1  53 N13       30.06R WCI   2
QUEBEC CITY    MOSUNNY   21   5  49 VRB2      29.99R
SHERBROOKE     PTSUNNY   18   7  62 W6        29.92S

_____REGIONAL ONTARIO LOCATIONS_____


CITY           SKY/WX    TMP DP  RH WIND       PRES   REMARKS
OTTAWA         MOSUNNY   12  -2  52 N10G17    30.10R WCI  -1

______KEY______
VSB  - VISIBILITY IN MILES
WCI  - WIND CHILL INDEX
HX   - HEAT INDEX
$$



USA.gov is the U.S. government's official web portal to all federal, state and local government web resources and services.